owner,sensor,date,latitude,longitude,vertical_datum,wind_speed,wind_to_direction,wind_speed_of_gust,qcFlag 
DISL,ioos:station:DISL:PPTA:1,2013-06-01T00:00:00Z,30.2791,-87.5561,0.0,5.22,102.7,-9999.0,'1111122,1111122,1111122' 
DISL,ioos:station:DISL:PPTA:1,2013-06-01T00:30:00Z,30.2791,-87.5561,0.0,5.16,106.3,-9999.0,'1111122,1111122,1111122' 
DISL,ioos:station:DISL:PPTA:1,2013-06-01T01:00:00Z,30.2791,-87.5561,0.0,4.57,105.8,-9999.0,'1111122,1111122,1111122' 
DISL,ioos:station:DISL:PPTA:1,2013-06-01T01:30:00Z,30.2791,-87.5561,0.0,4.25,109.6,-9999.0,'1111122,1111122,1111122' 
DISL,ioos:station:DISL:PPTA:1,2013-06-01T02:00:00Z,30.2791,-87.5561,0.0,4.27,111.5,-9999.0,'1111122,1111122,1111122' 
DISL,ioos:station:DISL:PPTA:1,2013-06-01T02:30:00Z,30.2791,-87.5561,0.0,4.23,109.6,-9999.0,'1111122,1111122,1111122' 
DISL,ioos:station:DISL:PPTA:1,2013-06-01T03:00:00Z,30.2791,-87.5561,0.0,4.97,112.1,-9999.0,'1111122,1111122,1111122' 
DISL,ioos:station:DISL:PPTA:1,2013-06-01T03:30:00Z,30.2791,-87.5561,0.0,5.53,105.4,-9999.0,'1111122,1111122,1111122' 
DISL,ioos:station:DISL:PPTA:1,2013-06-01T04:00:00Z,30.2791,-87.5561,0.0,5.3,106.3,-9999.0,'1111122,1111122,1111122' 
DISL,ioos:station:DISL:PPTA:1,2013-06-01T04:30:00Z,30.2791,-87.5561,0.0,5.46,108.9,-9999.0,'1111122,1111122,1111122' 
DISL,ioos:station:DISL:PPTA:1,2013-06-01T05:00:00Z,30.2791,-87.5561,0.0,5.09,109.8,-9999.0,'1111122,1111122,1111122' 
DISL,ioos:station:DISL:PPTA:1,2013-06-01T05:30:00Z,30.2791,-87.5561,0.0,6.24,115.1,-9999.0,'1111122,1111122,1111122' 
DISL,ioos:station:DISL:PPTA:1,2013-06-01T06:00:00Z,30.2791,-87.5561,0.0,6.46,121.1,-9999.0,'1111122,1111122,1111122' 
DISL,ioos:station:DISL:PPTA:1,2013-06-01T06:30:00Z,30.2791,-87.5561,0.0,7.37,124.5,-9999.0,'1111122,1111122,1111122' 
DISL,ioos:station:DISL:PPTA:1,2013-06-01T07:00:00Z,30.2791,-87.5561,0.0,6.53,122.2,-9999.0,'1111122,1111122,1111122' 
DISL,ioos:station:DISL:PPTA:1,2013-06-01T07:30:00Z,30.2791,-87.5561,0.0,6.35,125.6,-9999.0,'1111122,1111122,1111122' 
DISL,ioos:station:DISL:PPTA:1,2013-06-01T08:00:00Z,30.2791,-87.5561,0.0,6.03,117.1,-9999.0,'1111122,1111122,1111122' 
DISL,ioos:station:DISL:PPTA:1,2013-06-01T08:30:00Z,30.2791,-87.5561,0.0,5.61,127.2,-9999.0,'1111122,1111122,1111122' 
DISL,ioos:station:DISL:PPTA:1,2013-06-01T09:00:00Z,30.2791,-87.5561,0.0,5.26,117.5,-9999.0,'1111122,1111122,1111122' 
DISL,ioos:station:DISL:PPTA:1,2013-06-01T09:30:00Z,30.2791,-87.5561,0.0,4.47,113.4,-9999.0,'1111122,1111122,1111122' 
DISL,ioos:station:DISL:PPTA:1,2013-06-01T10:00:00Z,30.2791,-87.5561,0.0,4.31,112.7,-9999.0,'1111122,1111122,1111122' 
DISL,ioos:station:DISL:PPTA:1,2013-06-01T10:30:00Z,30.2791,-87.5561,0.0,4.65,112.4,-9999.0,'1111122,1111122,1111122' 
DISL,ioos:station:DISL:PPTA:1,2013-06-01T11:00:00Z,30.2791,-87.5561,0.0,5.61,116.4,-9999.0,'1111122,1111122,1111122' 
DISL,ioos:station:DISL:PPTA:1,2013-06-01T11:30:00Z,30.2791,-87.5561,0.0,4.43,111.9,-9999.0,'1111122,1111122,1111122' 
DISL,ioos:station:DISL:PPTA:1,2013-06-01T12:00:00Z,30.2791,-87.5561,0.0,4.67,106.3,-9999.0,'1111122,1111122,1111122' 
DISL,ioos:station:DISL:PPTA:1,2013-06-01T12:30:00Z,30.2791,-87.5561,0.0,5.32,106.2,-9999.0,'1111122,1111122,1111122' 
DISL,ioos:station:DISL:PPTA:1,2013-06-01T13:00:00Z,30.2791,-87.5561,0.0,5.12,103.1,-9999.0,'1111122,1111122,1111122' 
DISL,ioos:station:DISL:PPTA:1,2013-06-01T13:30:00Z,30.2791,-87.5561,0.0,5.28,105.1,-9999.0,'1111122,1111122,1111122' 
DISL,ioos:station:DISL:PPTA:1,2013-06-01T14:00:00Z,30.2791,-87.5561,0.0,4.69,111.6,-9999.0,'1111122,1111122,1111122' 
DISL,ioos:station:DISL:PPTA:1,2013-06-01T14:30:00Z,30.2791,-87.5561,0.0,4.14,114.0,-9999.0,'1111122,1111122,1111122' 
DISL,ioos:station:DISL:PPTA:1,2013-06-01T15:00:00Z,30.2791,-87.5561,0.0,4.25,109.2,-9999.0,'1111122,1111122,1111122' 
DISL,ioos:station:DISL:PPTA:1,2013-06-01T15:30:00Z,30.2791,-87.5561,0.0,4.6,112.3,-9999.0,'1111122,1111122,1111122' 
DISL,ioos:station:DISL:PPTA:1,2013-06-01T16:00:00Z,30.2791,-87.5561,0.0,5.63,117.0,-9999.0,'1111122,1111122,1111122' 
DISL,ioos:station:DISL:PPTA:1,2013-06-01T16:30:00Z,30.2791,-87.5561,0.0,6.11,123.6,-9999.0,'1111122,1111122,1111122' 
DISL,ioos:station:DISL:PPTA:1,2013-06-01T17:00:00Z,30.2791,-87.5561,0.0,6.28,126.3,-9999.0,'1111122,1111122,1111122' 
DISL,ioos:station:DISL:PPTA:1,2013-06-01T17:30:00Z,30.2791,-87.5561,0.0,5.83,121.6,-9999.0,'1111122,1111122,1111122' 
DISL,ioos:station:DISL:PPTA:1,2013-06-01T18:00:00Z,30.2791,-87.5561,0.0,6.0,125.3,-9999.0,'1111122,1111122,1111122' 
DISL,ioos:station:DISL:PPTA:1,2013-06-01T18:30:00Z,30.2791,-87.5561,0.0,5.54,119.0,-9999.0,'1111122,1111122,1111122' 
DISL,ioos:station:DISL:PPTA:1,2013-06-01T19:00:00Z,30.2791,-87.5561,0.0,5.22,119.4,-9999.0,'1111122,1111122,1111122' 
DISL,ioos:station:DISL:PPTA:1,2013-06-01T19:30:00Z,30.2791,-87.5561,0.0,5.61,126.6,-9999.0,'1111122,1111122,1111122' 
DISL,ioos:station:DISL:PPTA:1,2013-06-01T20:00:00Z,30.2791,-87.5561,0.0,5.35,128.5,-9999.0,'1111122,1111122,1111122' 
DISL,ioos:station:DISL:PPTA:1,2013-06-01T20:30:00Z,30.2791,-87.5561,0.0,5.57,136.4,-9999.0,'1111122,1111122,1111122' 
DISL,ioos:station:DISL:PPTA:1,2013-06-01T21:00:00Z,30.2791,-87.5561,0.0,5.47,136.2,-9999.0,'1111122,1111122,1111122' 
DISL,ioos:station:DISL:PPTA:1,2013-06-01T21:30:00Z,30.2791,-87.5561,0.0,5.81,135.4,-9999.0,'1111122,1111122,1111122' 
DISL,ioos:station:DISL:PPTA:1,2013-06-01T22:00:00Z,30.2791,-87.5561,0.0,4.71,131.3,-9999.0,'1111122,1111122,1111122' 
DISL,ioos:station:DISL:PPTA:1,2013-06-01T22:30:00Z,30.2791,-87.5561,0.0,3.68,129.2,-9999.0,'1111122,1111122,1111122' 
DISL,ioos:station:DISL:PPTA:1,2013-06-01T23:00:00Z,30.2791,-87.5561,0.0,3.92,131.3,-9999.0,'1111122,1111122,1111122' 
DISL,ioos:station:DISL:PPTA:1,2013-06-01T23:30:00Z,30.2791,-87.5561,0.0,4.2,131.6,-9999.0,'1111122,1111122,1111122' 
DISL,ioos:station:DISL:PPTA:1,2013-06-02T00:00:00Z,30.2791,-87.5561,0.0,4.88,133.4,-9999.0,'1111122,1111122,1111122' 
DISL,ioos:station:DISL:PPTA:1,2013-06-02T00:30:00Z,30.2791,-87.5561,0.0,4.34,130.4,-9999.0,'1111122,1111122,1111122' 
DISL,ioos:station:DISL:PPTA:1,2013-06-02T01:00:00Z,30.2791,-87.5561,0.0,3.92,127.0,-9999.0,'1111122,1111122,1111122' 
DISL,ioos:station:DISL:PPTA:1,2013-06-02T01:30:00Z,30.2791,-87.5561,0.0,4.73,138.1,-9999.0,'1111122,1111122,1111122' 
DISL,ioos:station:DISL:PPTA:1,2013-06-02T02:00:00Z,30.2791,-87.5561,0.0,5.47,141.0,-9999.0,'1111122,1111122,1111122' 
DISL,ioos:station:DISL:PPTA:1,2013-06-02T02:30:00Z,30.2791,-87.5561,0.0,4.57,133.7,-9999.0,'1111122,1111122,1111122' 
DISL,ioos:station:DISL:PPTA:1,2013-06-02T03:00:00Z,30.2791,-87.5561,0.0,4.21,129.1,-9999.0,'1111122,1111122,1111122' 
DISL,ioos:station:DISL:PPTA:1,2013-06-02T03:30:00Z,30.2791,-87.5561,0.0,3.96,119.6,-9999.0,'1111122,1111122,1111122' 
DISL,ioos:station:DISL:PPTA:1,2013-06-02T04:00:00Z,30.2791,-87.5561,0.0,3.91,119.8,-9999.0,'1111122,1111122,1111122' 
DISL,ioos:station:DISL:PPTA:1,2013-06-02T04:30:00Z,30.2791,-87.5561,0.0,3.87,120.9,-9999.0,'1111122,1111122,1111122' 
DISL,ioos:station:DISL:PPTA:1,2013-06-02T05:00:00Z,30.2791,-87.5561,0.0,3.93,126.0,-9999.0,'1111122,1111122,1111122' 
DISL,ioos:station:DISL:PPTA:1,2013-06-02T05:30:00Z,30.2791,-87.5561,0.0,3.92,136.7,-9999.0,'1111122,1111122,1111122' 
DISL,ioos:station:DISL:PPTA:1,2013-06-02T06:00:00Z,30.2791,-87.5561,0.0,3.14,147.8,-9999.0,'1111122,1111122,1111122' 
DISL,ioos:station:DISL:PPTA:1,2013-06-02T06:30:00Z,30.2791,-87.5561,0.0,2.22,156.5,-9999.0,'1111122,1111122,1111122' 
DISL,ioos:station:DISL:PPTA:1,2013-06-02T07:00:00Z,30.2791,-87.5561,0.0,2.98,160.8,-9999.0,'1111122,1111122,1111122' 
DISL,ioos:station:DISL:PPTA:1,2013-06-02T07:30:00Z,30.2791,-87.5561,0.0,2.76,162.8,-9999.0,'1111122,1111122,1111122' 
DISL,ioos:station:DISL:PPTA:1,2013-06-02T08:00:00Z,30.2791,-87.5561,0.0,2.77,163.6,-9999.0,'1111122,1111122,1111122' 
DISL,ioos:station:DISL:PPTA:1,2013-06-02T08:30:00Z,30.2791,-87.5561,0.0,1.68,162.0,-9999.0,'1111122,1111122,1111122' 
DISL,ioos:station:DISL:PPTA:1,2013-06-02T09:00:00Z,30.2791,-87.5561,0.0,1.32,165.5,-9999.0,'1111122,1111122,1111122' 
DISL,ioos:station:DISL:PPTA:1,2013-06-02T09:30:00Z,30.2791,-87.5561,0.0,1.68,163.9,-9999.0,'1111122,1111122,1111122' 
DISL,ioos:station:DISL:PPTA:1,2013-06-02T10:00:00Z,30.2791,-87.5561,0.0,1.74,222.1,-9999.0,'1111122,1111122,1111122' 
DISL,ioos:station:DISL:PPTA:1,2013-06-02T10:30:00Z,30.2791,-87.5561,0.0,1.86,285.5,-9999.0,'1111122,1111122,1111122' 
DISL,ioos:station:DISL:PPTA:1,2013-06-02T11:00:00Z,30.2791,-87.5561,0.0,2.54,293.4,-9999.0,'1111122,1111122,1111122' 
DISL,ioos:station:DISL:PPTA:1,2013-06-02T11:30:00Z,30.2791,-87.5561,0.0,1.81,285.7,-9999.0,'1111122,1111122,1111122' 
DISL,ioos:station:DISL:PPTA:1,2013-06-02T12:00:00Z,30.2791,-87.5561,0.0,1.15,319.2,-9999.0,'1111122,1111122,1111122' 
DISL,ioos:station:DISL:PPTA:1,2013-06-02T12:30:00Z,30.2791,-87.5561,0.0,0.58,325.4,-9999.0,'1111122,1111122,1111122' 
DISL,ioos:station:DISL:PPTA:1,2013-06-02T13:00:00Z,30.2791,-87.5561,0.0,2.24,291.4,-9999.0,'1111122,1111122,1111122' 
DISL,ioos:station:DISL:PPTA:1,2013-06-02T13:30:00Z,30.2791,-87.5561,0.0,2.43,288.7,-9999.0,'1111122,1111122,1111122' 
DISL,ioos:station:DISL:PPTA:1,2013-06-02T14:00:00Z,30.2791,-87.5561,0.0,2.43,340.2,-9999.0,'1111122,1111122,1111122' 
DISL,ioos:station:DISL:PPTA:1,2013-06-02T14:30:00Z,30.2791,-87.5561,0.0,1.06,275.8,-9999.0,'1111122,1111122,1111122' 
DISL,ioos:station:DISL:PPTA:1,2013-06-02T15:00:00Z,30.2791,-87.5561,0.0,1.73,343.3,-9999.0,'1111122,1111122,1111122' 
DISL,ioos:station:DISL:PPTA:1,2013-06-02T15:30:00Z,30.2791,-87.5561,0.0,2.88,143.5,-9999.0,'1111122,1111122,1111122' 
DISL,ioos:station:DISL:PPTA:1,2013-06-02T16:00:00Z,30.2791,-87.5561,0.0,2.85,150.7,-9999.0,'1111122,1111122,1111122' 
DISL,ioos:station:DISL:PPTA:1,2013-06-02T16:30:00Z,30.2791,-87.5561,0.0,3.37,150.9,-9999.0,'1111122,1111122,1111122' 
DISL,ioos:station:DISL:PPTA:1,2013-06-02T17:00:00Z,30.2791,-87.5561,0.0,3.69,149.0,-9999.0,'1111122,1111122,1111122' 
DISL,ioos:station:DISL:PPTA:1,2013-06-02T17:30:00Z,30.2791,-87.5561,0.0,4.21,153.5,-9999.0,'1111122,1111122,1111122' 
DISL,ioos:station:DISL:PPTA:1,2013-06-02T18:00:00Z,30.2791,-87.5561,0.0,3.84,154.8,-9999.0,'1111122,1111122,1111122' 
DISL,ioos:station:DISL:PPTA:1,2013-06-02T18:30:00Z,30.2791,-87.5561,0.0,3.64,156.6,-9999.0,'1111122,1111122,1111122' 
DISL,ioos:station:DISL:PPTA:1,2013-06-02T19:00:00Z,30.2791,-87.5561,0.0,4.23,157.0,-9999.0,'1111122,1111122,1111122' 
DISL,ioos:station:DISL:PPTA:1,2013-06-02T19:30:00Z,30.2791,-87.5561,0.0,5.13,150.1,-9999.0,'1111122,1111122,1111122' 
DISL,ioos:station:DISL:PPTA:1,2013-06-02T20:00:00Z,30.2791,-87.5561,0.0,4.38,157.0,-9999.0,'1111122,1111122,1111122' 
DISL,ioos:station:DISL:PPTA:1,2013-06-02T20:30:00Z,30.2791,-87.5561,0.0,4.72,157.4,-9999.0,'1111122,1111122,1111122' 
DISL,ioos:station:DISL:PPTA:1,2013-06-02T21:00:00Z,30.2791,-87.5561,0.0,4.2,159.2,-9999.0,'1111122,1111122,1111122' 
DISL,ioos:station:DISL:PPTA:1,2013-06-02T21:30:00Z,30.2791,-87.5561,0.0,4.24,161.0,-9999.0,'1111122,1111122,1111122' 
DISL,ioos:station:DISL:PPTA:1,2013-06-02T22:00:00Z,30.2791,-87.5561,0.0,4.19,164.5,-9999.0,'1111122,1111122,1111122' 
DISL,ioos:station:DISL:PPTA:1,2013-06-02T22:30:00Z,30.2791,-87.5561,0.0,4.83,168.4,-9999.0,'1111122,1111122,1111122' 
DISL,ioos:station:DISL:PPTA:1,2013-06-02T23:00:00Z,30.2791,-87.5561,0.0,5.74,166.2,-9999.0,'1111122,1111122,1111122' 
DISL,ioos:station:DISL:PPTA:1,2013-06-02T23:30:00Z,30.2791,-87.5561,0.0,3.0,174.1,-9999.0,'1111122,1111122,1111122' 
DISL,ioos:station:DISL:PPTA:1,2013-06-03T00:00:00Z,30.2791,-87.5561,0.0,3.19,169.0,-9999.0,'1111122,1111122,1111122' 
DISL,ioos:station:DISL:PPTA:1,2013-06-03T00:30:00Z,30.2791,-87.5561,0.0,4.26,164.9,-9999.0,'1111122,1111122,1111122' 
DISL,ioos:station:DISL:PPTA:1,2013-06-03T01:00:00Z,30.2791,-87.5561,0.0,1.68,183.9,-9999.0,'1111122,1111122,1111122' 
DISL,ioos:station:DISL:PPTA:1,2013-06-03T01:30:00Z,30.2791,-87.5561,0.0,1.97,172.7,-9999.0,'1111122,1111122,1111122' 
DISL,ioos:station:DISL:PPTA:1,2013-06-03T02:00:00Z,30.2791,-87.5561,0.0,1.65,216.4,-9999.0,'1111122,1111122,1111122' 
DISL,ioos:station:DISL:PPTA:1,2013-06-03T02:30:00Z,30.2791,-87.5561,0.0,1.9,225.2,-9999.0,'1111122,1111122,1111122' 
DISL,ioos:station:DISL:PPTA:1,2013-06-03T03:00:00Z,30.2791,-87.5561,0.0,2.01,291.7,-9999.0,'1111122,1111122,1111122' 
DISL,ioos:station:DISL:PPTA:1,2013-06-03T03:30:00Z,30.2791,-87.5561,0.0,0.83,339.0,-9999.0,'1111122,1111122,1111122' 
DISL,ioos:station:DISL:PPTA:1,2013-06-03T04:00:00Z,30.2791,-87.5561,0.0,1.95,314.1,-9999.0,'1111122,1111122,1111122' 
DISL,ioos:station:DISL:PPTA:1,2013-06-03T04:30:00Z,30.2791,-87.5561,0.0,1.1,349.0,-9999.0,'1111122,1111122,1111122' 
DISL,ioos:station:DISL:PPTA:1,2013-06-03T05:00:00Z,30.2791,-87.5561,0.0,0.92,127.0,-9999.0,'1111122,1111122,1111122' 
DISL,ioos:station:DISL:PPTA:1,2013-06-03T05:30:00Z,30.2791,-87.5561,0.0,1.77,166.2,-9999.0,'1111122,1111122,1111122' 
DISL,ioos:station:DISL:PPTA:1,2013-06-03T06:00:00Z,30.2791,-87.5561,0.0,2.74,166.3,-9999.0,'1111122,1111122,1111122' 
DISL,ioos:station:DISL:PPTA:1,2013-06-03T06:30:00Z,30.2791,-87.5561,0.0,2.69,169.0,-9999.0,'1111122,1111122,1111122' 
DISL,ioos:station:DISL:PPTA:1,2013-06-03T07:00:00Z,30.2791,-87.5561,0.0,2.89,167.9,-9999.0,'1111122,1111122,1111122' 
DISL,ioos:station:DISL:PPTA:1,2013-06-03T07:30:00Z,30.2791,-87.5561,0.0,2.17,169.5,-9999.0,'1111122,1111122,1111122' 
DISL,ioos:station:DISL:PPTA:1,2013-06-03T08:00:00Z,30.2791,-87.5561,0.0,3.31,168.6,-9999.0,'1111122,1111122,1111122' 
DISL,ioos:station:DISL:PPTA:1,2013-06-03T08:30:00Z,30.2791,-87.5561,0.0,3.23,170.4,-9999.0,'1111122,1111122,1111122' 
DISL,ioos:station:DISL:PPTA:1,2013-06-03T09:00:00Z,30.2791,-87.5561,0.0,2.78,172.0,-9999.0,'1111122,1111122,1111122' 
DISL,ioos:station:DISL:PPTA:1,2013-06-03T09:30:00Z,30.2791,-87.5561,0.0,3.01,173.1,-9999.0,'1111122,1111122,1111122' 
DISL,ioos:station:DISL:PPTA:1,2013-06-03T10:00:00Z,30.2791,-87.5561,0.0,3.23,173.7,-9999.0,'1111122,1111122,1111122' 
DISL,ioos:station:DISL:PPTA:1,2013-06-03T10:30:00Z,30.2791,-87.5561,0.0,2.53,177.3,-9999.0,'1111122,1111122,1111122' 
DISL,ioos:station:DISL:PPTA:1,2013-06-03T11:00:00Z,30.2791,-87.5561,0.0,3.01,176.7,-9999.0,'1111122,1111122,1111122' 
DISL,ioos:station:DISL:PPTA:1,2013-06-03T11:30:00Z,30.2791,-87.5561,0.0,1.24,191.6,-9999.0,'1111122,1111122,1111122' 
DISL,ioos:station:DISL:PPTA:1,2013-06-03T12:00:00Z,30.2791,-87.5561,0.0,0.82,221.0,-9999.0,'1111122,1111122,1111122' 
DISL,ioos:station:DISL:PPTA:1,2013-06-03T12:30:00Z,30.2791,-87.5561,0.0,2.18,176.2,-9999.0,'1111122,1111122,1111122' 
DISL,ioos:station:DISL:PPTA:1,2013-06-03T13:00:00Z,30.2791,-87.5561,0.0,1.78,192.8,-9999.0,'1111122,1111122,1111122' 
DISL,ioos:station:DISL:PPTA:1,2013-06-03T13:30:00Z,30.2791,-87.5561,0.0,1.55,211.7,-9999.0,'1111122,1111122,1111122' 
DISL,ioos:station:DISL:PPTA:1,2013-06-03T14:00:00Z,30.2791,-87.5561,0.0,2.04,215.7,-9999.0,'1111122,1111122,1111122' 
DISL,ioos:station:DISL:PPTA:1,2013-06-03T14:30:00Z,30.2791,-87.5561,0.0,3.43,172.1,-9999.0,'1111122,1111122,1111122' 
DISL,ioos:station:DISL:PPTA:1,2013-06-03T15:00:00Z,30.2791,-87.5561,0.0,3.59,169.8,-9999.0,'1111122,1111122,1111122' 
DISL,ioos:station:DISL:PPTA:1,2013-06-03T15:30:00Z,30.2791,-87.5561,0.0,3.86,170.2,-9999.0,'1111122,1111122,1111122' 
DISL,ioos:station:DISL:PPTA:1,2013-06-03T16:00:00Z,30.2791,-87.5561,0.0,4.52,170.7,-9999.0,'1111122,1111122,1111122' 
DISL,ioos:station:DISL:PPTA:1,2013-06-03T16:30:00Z,30.2791,-87.5561,0.0,4.33,171.6,-9999.0,'1111122,1111122,1111122' 
DISL,ioos:station:DISL:PPTA:1,2013-06-03T17:00:00Z,30.2791,-87.5561,0.0,2.08,330.9,-9999.0,'1111122,1111122,1111122' 
DISL,ioos:station:DISL:PPTA:1,2013-06-03T17:30:00Z,30.2791,-87.5561,0.0,2.63,327.4,-9999.0,'1111122,1111122,1111122' 
DISL,ioos:station:DISL:PPTA:1,2013-06-03T18:00:00Z,30.2791,-87.5561,0.0,1.7,22.11,-9999.0,'1111122,1111122,1111122' 
DISL,ioos:station:DISL:PPTA:1,2013-06-03T18:30:00Z,30.2791,-87.5561,0.0,1.84,68.9,-9999.0,'1111122,1111122,1111122' 
DISL,ioos:station:DISL:PPTA:1,2013-06-03T19:00:00Z,30.2791,-87.5561,0.0,0.67,84.9,-9999.0,'1111122,1111122,1111122' 
DISL,ioos:station:DISL:PPTA:1,2013-06-03T19:30:00Z,30.2791,-87.5561,0.0,1.63,159.7,-9999.0,'1111122,1111122,1111122' 
DISL,ioos:station:DISL:PPTA:1,2013-06-03T20:00:00Z,30.2791,-87.5561,0.0,2.06,145.5,-9999.0,'1111122,1111122,1111122' 
DISL,ioos:station:DISL:PPTA:1,2013-06-03T20:30:00Z,30.2791,-87.5561,0.0,3.19,149.9,-9999.0,'1111122,1111122,1111122' 
DISL,ioos:station:DISL:PPTA:1,2013-06-03T21:00:00Z,30.2791,-87.5561,0.0,2.64,153.3,-9999.0,'1111122,1111122,1111122' 
DISL,ioos:station:DISL:PPTA:1,2013-06-03T21:30:00Z,30.2791,-87.5561,0.0,3.13,160.5,-9999.0,'1111122,1111122,1111122' 
DISL,ioos:station:DISL:PPTA:1,2013-06-03T22:00:00Z,30.2791,-87.5561,0.0,2.77,166.8,-9999.0,'1111122,1111122,1111122' 
DISL,ioos:station:DISL:PPTA:1,2013-06-03T22:30:00Z,30.2791,-87.5561,0.0,2.98,166.4,-9999.0,'1111122,1111122,1111122' 
DISL,ioos:station:DISL:PPTA:1,2013-06-03T23:00:00Z,30.2791,-87.5561,0.0,2.53,165.4,-9999.0,'1111122,1111122,1111122' 
DISL,ioos:station:DISL:PPTA:1,2013-06-03T23:30:00Z,30.2791,-87.5561,0.0,2.98,156.1,-9999.0,'1111122,1111122,1111122' 
DISL,ioos:station:DISL:PPTA:1,2013-06-04T00:00:00Z,30.2791,-87.5561,0.0,2.19,156.9,-9999.0,'1111122,1111122,1111122' 
DISL,ioos:station:DISL:PPTA:1,2013-06-04T00:30:00Z,30.2791,-87.5561,0.0,1.59,150.9,-9999.0,'1111122,1111122,1111122' 
DISL,ioos:station:DISL:PPTA:1,2013-06-04T01:00:00Z,30.2791,-87.5561,0.0,1.47,142.4,-9999.0,'1111122,1111122,1111122' 
DISL,ioos:station:DISL:PPTA:1,2013-06-04T01:30:00Z,30.2791,-87.5561,0.0,2.15,148.8,-9999.0,'1111122,1111122,1111122' 
DISL,ioos:station:DISL:PPTA:1,2013-06-04T02:00:00Z,30.2791,-87.5561,0.0,2.01,152.3,-9999.0,'1111122,1111122,1111122' 
DISL,ioos:station:DISL:PPTA:1,2013-06-04T02:30:00Z,30.2791,-87.5561,0.0,3.4,147.2,-9999.0,'1111122,1111122,1111122' 
DISL,ioos:station:DISL:PPTA:1,2013-06-04T03:00:00Z,30.2791,-87.5561,0.0,3.22,154.6,-9999.0,'1111122,1111122,1111122' 
DISL,ioos:station:DISL:PPTA:1,2013-06-04T03:30:00Z,30.2791,-87.5561,0.0,3.71,161.1,-9999.0,'1111122,1111122,1111122' 
DISL,ioos:station:DISL:PPTA:1,2013-06-04T04:00:00Z,30.2791,-87.5561,0.0,4.41,157.6,-9999.0,'1111122,1111122,1111122' 
DISL,ioos:station:DISL:PPTA:1,2013-06-04T04:30:00Z,30.2791,-87.5561,0.0,4.15,156.3,-9999.0,'1111122,1111122,1111122' 
DISL,ioos:station:DISL:PPTA:1,2013-06-04T05:00:00Z,30.2791,-87.5561,0.0,4.37,154.8,-9999.0,'1111122,1111122,1111122' 
DISL,ioos:station:DISL:PPTA:1,2013-06-04T05:30:00Z,30.2791,-87.5561,0.0,4.07,152.3,-9999.0,'1111122,1111122,1111122' 
DISL,ioos:station:DISL:PPTA:1,2013-06-04T06:00:00Z,30.2791,-87.5561,0.0,3.44,159.5,-9999.0,'1111122,1111122,1111122' 
DISL,ioos:station:DISL:PPTA:1,2013-06-04T06:30:00Z,30.2791,-87.5561,0.0,2.36,164.7,-9999.0,'1111122,1111122,1111122' 
DISL,ioos:station:DISL:PPTA:1,2013-06-04T07:00:00Z,30.2791,-87.5561,0.0,2.42,161.9,-9999.0,'1111122,1111122,1111122' 
DISL,ioos:station:DISL:PPTA:1,2013-06-04T07:30:00Z,30.2791,-87.5561,0.0,2.51,152.0,-9999.0,'1111122,1111122,1111122' 
DISL,ioos:station:DISL:PPTA:1,2013-06-04T08:00:00Z,30.2791,-87.5561,0.0,2.26,146.2,-9999.0,'1111122,1111122,1111122' 
DISL,ioos:station:DISL:PPTA:1,2013-06-04T08:30:00Z,30.2791,-87.5561,0.0,0.94,153.5,-9999.0,'1111122,1111122,1111122' 
DISL,ioos:station:DISL:PPTA:1,2013-06-04T09:00:00Z,30.2791,-87.5561,0.0,1.55,130.0,-9999.0,'1111122,1111122,1111122' 
DISL,ioos:station:DISL:PPTA:1,2013-06-04T09:30:00Z,30.2791,-87.5561,0.0,0.86,118.6,-9999.0,'1111122,1111122,1111122' 
DISL,ioos:station:DISL:PPTA:1,2013-06-04T10:00:00Z,30.2791,-87.5561,0.0,0.85,145.4,-9999.0,'1111122,1111122,1111122' 
DISL,ioos:station:DISL:PPTA:1,2013-06-04T10:30:00Z,30.2791,-87.5561,0.0,1.63,119.3,-9999.0,'1111122,1111122,1111122' 
DISL,ioos:station:DISL:PPTA:1,2013-06-04T11:00:00Z,30.2791,-87.5561,0.0,1.53,2.477,-9999.0,'1111122,1111122,1111122' 
DISL,ioos:station:DISL:PPTA:1,2013-06-04T11:30:00Z,30.2791,-87.5561,0.0,1.51,352.8,-9999.0,'1111122,1111122,1111122' 
DISL,ioos:station:DISL:PPTA:1,2013-06-04T12:00:00Z,30.2791,-87.5561,0.0,1.21,24.82,-9999.0,'1111122,1111122,1111122' 
DISL,ioos:station:DISL:PPTA:1,2013-06-04T12:30:00Z,30.2791,-87.5561,0.0,1.61,32.39,-9999.0,'1111122,1111122,1111122' 
DISL,ioos:station:DISL:PPTA:1,2013-06-04T13:00:00Z,30.2791,-87.5561,0.0,1.39,27.58,-9999.0,'1111122,1111122,1111122' 
DISL,ioos:station:DISL:PPTA:1,2013-06-04T13:30:00Z,30.2791,-87.5561,0.0,2.09,62.36,-9999.0,'1111122,1111122,1111122' 
DISL,ioos:station:DISL:PPTA:1,2013-06-04T14:00:00Z,30.2791,-87.5561,0.0,1.77,88.8,-9999.0,'1111122,1111122,1111122' 
DISL,ioos:station:DISL:PPTA:1,2013-06-04T14:30:00Z,30.2791,-87.5561,0.0,3.5,98.8,-9999.0,'1111122,1111122,1111122' 
DISL,ioos:station:DISL:PPTA:1,2013-06-04T15:00:00Z,30.2791,-87.5561,0.0,3.36,113.0,-9999.0,'1111122,1111122,1111122' 
DISL,ioos:station:DISL:PPTA:1,2013-06-04T15:30:00Z,30.2791,-87.5561,0.0,3.31,105.8,-9999.0,'1111122,1111122,1111122' 
DISL,ioos:station:DISL:PPTA:1,2013-06-04T16:00:00Z,30.2791,-87.5561,0.0,3.98,106.5,-9999.0,'1111122,1111122,1111122' 
DISL,ioos:station:DISL:PPTA:1,2013-06-04T16:30:00Z,30.2791,-87.5561,0.0,3.97,110.0,-9999.0,'1111122,1111122,1111122' 
DISL,ioos:station:DISL:PPTA:1,2013-06-04T17:00:00Z,30.2791,-87.5561,0.0,4.49,111.1,-9999.0,'1111122,1111122,1111122' 
DISL,ioos:station:DISL:PPTA:1,2013-06-04T17:30:00Z,30.2791,-87.5561,0.0,4.23,102.8,-9999.0,'1111122,1111122,1111122' 
DISL,ioos:station:DISL:PPTA:1,2013-06-04T18:00:00Z,30.2791,-87.5561,0.0,3.6,116.2,-9999.0,'1111122,1111122,1111122' 
DISL,ioos:station:DISL:PPTA:1,2013-06-04T18:30:00Z,30.2791,-87.5561,0.0,4.4,118.4,-9999.0,'1111122,1111122,1111122' 
DISL,ioos:station:DISL:PPTA:1,2013-06-04T19:00:00Z,30.2791,-87.5561,0.0,4.47,127.2,-9999.0,'1111122,1111122,1111122' 
DISL,ioos:station:DISL:PPTA:1,2013-06-04T19:30:00Z,30.2791,-87.5561,0.0,5.28,137.0,-9999.0,'1111122,1111122,1111122' 
DISL,ioos:station:DISL:PPTA:1,2013-06-04T20:00:00Z,30.2791,-87.5561,0.0,5.35,141.4,-9999.0,'1111122,1111122,1111122' 
DISL,ioos:station:DISL:PPTA:1,2013-06-04T20:30:00Z,30.2791,-87.5561,0.0,5.73,145.5,-9999.0,'1111122,1111122,1111122' 
DISL,ioos:station:DISL:PPTA:1,2013-06-04T21:00:00Z,30.2791,-87.5561,0.0,4.99,142.1,-9999.0,'1111122,1111122,1111122' 
DISL,ioos:station:DISL:PPTA:1,2013-06-04T21:30:00Z,30.2791,-87.5561,0.0,4.52,142.5,-9999.0,'1111122,1111122,1111122' 
DISL,ioos:station:DISL:PPTA:1,2013-06-04T22:00:00Z,30.2791,-87.5561,0.0,4.6,138.3,-9999.0,'1111122,1111122,1111122' 
DISL,ioos:station:DISL:PPTA:1,2013-06-04T22:30:00Z,30.2791,-87.5561,0.0,4.45,135.0,-9999.0,'1111122,1111122,1111122' 
DISL,ioos:station:DISL:PPTA:1,2013-06-04T23:00:00Z,30.2791,-87.5561,0.0,5.18,133.1,-9999.0,'1111122,1111122,1111122' 
DISL,ioos:station:DISL:PPTA:1,2013-06-04T23:30:00Z,30.2791,-87.5561,0.0,5.31,134.6,-9999.0,'1111122,1111122,1111122' 
DISL,ioos:station:DISL:PPTA:1,2013-06-05T00:00:00Z,30.2791,-87.5561,0.0,5.56,130.8,-9999.0,'1111122,1111122,1111122' 
DISL,ioos:station:DISL:PPTA:1,2013-06-05T00:30:00Z,30.2791,-87.5561,0.0,3.84,127.1,-9999.0,'1111122,1111122,1111122' 
DISL,ioos:station:DISL:PPTA:1,2013-06-05T01:00:00Z,30.2791,-87.5561,0.0,3.08,118.6,-9999.0,'1111122,1111122,1111122' 
DISL,ioos:station:DISL:PPTA:1,2013-06-05T01:30:00Z,30.2791,-87.5561,0.0,4.9,128.7,-9999.0,'1111122,1111122,1111122' 
DISL,ioos:station:DISL:PPTA:1,2013-06-05T02:00:00Z,30.2791,-87.5561,0.0,6.1,143.9,-9999.0,'1111122,1111122,1111122' 
DISL,ioos:station:DISL:PPTA:1,2013-06-05T02:30:00Z,30.2791,-87.5561,0.0,7.22,149.0,-9999.0,'1111122,1111122,1111122' 
DISL,ioos:station:DISL:PPTA:1,2013-06-05T03:00:00Z,30.2791,-87.5561,0.0,7.46,147.5,-9999.0,'1111122,1111122,1111122' 
DISL,ioos:station:DISL:PPTA:1,2013-06-05T03:30:00Z,30.2791,-87.5561,0.0,6.81,154.7,-9999.0,'1111122,1111122,1111122' 
DISL,ioos:station:DISL:PPTA:1,2013-06-05T04:00:00Z,30.2791,-87.5561,0.0,6.34,160.8,-9999.0,'1111122,1111122,1111122' 
DISL,ioos:station:DISL:PPTA:1,2013-06-05T04:30:00Z,30.2791,-87.5561,0.0,6.52,157.9,-9999.0,'1111122,1111122,1111122' 